Location: Buckland
(65.9785°N, 161.1281°W)
Time: 07:39:48
(UTC+00:00)

Transit 2A Rocket - Pass Details

Date: 03 December 2020
Orbit: 592 x 910 km, 66.7° (Epoch: 21 January)

Event Time Altitude Azimuth Distance (km) Brightness Sun altitude
Exits shadow 17:33:22 22° 287° (WNW) 1,623 6.1 -14.5°
Maximum altitude 17:36:49 80° 203° (SSW) 745 4.9 -14.2°
Drops below altitude 10° 17:41:39 10° 117° (ESE) 2,124 8.8 -13.7°
Sets 17:43:51 0° 116° (ESE) 2,993 10.1 -13.5°
